Regional Weather Roundup
Issued by NWS

Home | Current Version | Previous Version | Text Only | Print | Product List | Glossary Off
Versions: 1 2 3 4 5 6 7 8 9 10 11 12 13 14 15 16 17 18 19 20 21 22 23 24 25 26 27 28 29 30 31 32 33 34 35 36 37 38 39 40 41 42 43 44 45 46 47 48 49 50

000
ASUS45 KCYS 212310
RWRWY

WYOMING REGIONAL WEATHER ROUNDUP
NATIONAL WEATHER SERVICE CHEYENNE WY
400 PM MST FRI NOV 21 2014

NOTE:  "FAIR" INDICATES FEW OR NO CLOUDS BELOW 12,000 FEET
WITH NO SIGNIFICANT WEATHER AND/OR OBSTRUCTIONS TO VISIBILITY.

WYZ001-220000-
YELLOWSTONE NATIONAL PARK

CITY           SKY/WX    TMP DP  RH WIND       PRES   REMARKS
LK YELLOWSTONE   N/A     30  22  72 W8G18     29.95F WCI  22
W YELLOWSTONE  NOT AVBL

$$
WYZ002>013-054>058-071-098>099-220000-
NORTHERN WYOMING

CITY           SKY/WX    TMP DP  RH WIND       PRES   REMARKS
JACKSON        CLEAR     30  27  86 E5        29.96S WCI  25
CODY           MOCLDY    45  23  42 W6        29.84S
GREYBULL       MOCLDY    30  20  66 E6        29.87F WCI  24
WORLAND        CLEAR     31  21  66 CALM      29.88S
SHERIDAN       PTCLDY    43  29  57 CALM      29.82R
BUFFALO        CLEAR     44  20  38 E3        29.84R
GILLETTE       PTCLDY    41  27  57 S3        29.83S
HULETT           N/A    N/A N/A N/A MISG        N/A
NEWCASTLE      FAIR      36  27  69 NE6       29.87S WCI  31

$$
WYZ014>020-022>026-101>103-220000-
CENTRAL WYOMING

CITY           SKY/WX    TMP DP  RH WIND       PRES   REMARKS
BIG PINEY      CLEAR     42  20  41 E5        29.98S
PINEDALE       CLEAR     36  23  60 CALM      30.00R
DUBOIS         FAIR      36  19  51 W13G26    29.90S WCI  27
LANDER         NOT AVBL
RIVERTON       CLEAR     32  22  66 CALM      29.90R
CASPER         CLEAR     44  22  41 SW15      29.88S
DOUGLAS        PTCLDY    65  23  20 W7        29.87S

$$
WYZ021-027>030-104>119-220000-
SOUTHERN WYOMING

CITY           SKY/WX    TMP DP  RH WIND       PRES   REMARKS
EVANSTON       CLEAR     43  22  43 W12       29.99S
KEMMERER       CLEAR     41  23  48 W8        29.99S
FORT BRIDGER   FAIR      46  21  37 W13       30.01F
ROCK SPRINGS   CLEAR     42  20  41 W12       29.99S
DIXON          FAIR      46  15  29 SW9       30.03S
RAWLINS        CLEAR     42  19  39 SW16      29.98R
SARATOGA       FAIR      41  21  45 W12G21    29.99S
LARAMIE        PTCLDY    41  18  39 W12       29.94R
CHEYENNE       PTCLDY    48  16  27 W7        29.92R
TORRINGTON     CLEAR     50  21  32 W10       29.87R
PINE BLUFFS    FAIR      50  18  27 NW6       29.91R

$$


USA.gov is the U.S. government's official web portal to all federal, state and local government web resources and services.